Location: Litvinovka
(48.6667°N, 34.3500°E)
Time: 10:13:12
(UTC+00:00)

Daily predictions for brighter satellites

Satellite Brightness Start Highest point End
(mag) Time Altitude Azimuth Time Altitude Azimuth Time Altitude Azimuth
Cosmos 2263 Rocket 2.4 16:08:52 10° S 16:14:10 47° ESE 16:19:31 10° NE
ATLAS CENTAUR R/B 3.4 16:13:43 10° W 16:17:03 26° NW 16:20:17 10° NNE
Meteor 2-9 Rocket 4.5 16:11:33 10° SSE 16:17:12 51° E 16:22:47 10° NNE
Tsikada Rocket 4.2 16:11:20 10° N 16:17:32 82° W 16:23:41 10° S
Cosmos 1844 Rocket 4.3 16:19:59 10° ESE 16:22:13 12° E 16:24:27 10° ENE
CZ-2C R/B 3.1 16:17:57 10° SSE 16:23:09 74° ENE 16:28:42 10° N
Cosmos 2227 4.3 16:17:49 10° S 16:23:28 60° ESE 16:29:05 10° NE
NOSS 8 (F) 4.1 16:20:56 10° SSW 16:24:10 69° SE 16:27:10 10° NE
Cosmos 990 Rocket 3.9 16:19:42 10° SSW 16:24:48 69° ESE 16:29:56 10° NNE
SJ 16-02 1.8 16:23:15 10° SSW 16:27:37 68° WNW 16:32:00 10° NNE
Cosmos 1943 3.2 16:22:20 10° NNW 16:28:01 83° ENE 16:33:42 10° SSE
USA 102 4.3 16:24:33 10° SE 16:30:32 75° ENE 16:34:07 10° NNW
NOSS 3-2 (A) 4.4 16:24:19 10° NW 16:31:18 49° NE 16:39:07 10° ESE
SJ-11-01 4.3 16:27:09 10° SSE 16:31:50 72° ENE 16:36:33 10° N
Okean 2 Rocket 4.1 16:28:47 10° SE 16:32:28 25° E 16:36:10 10° NNE
NOSS 2-2 (C) 4.2 16:30:12 10° S 16:33:04 23° ESE 16:36:05 10° ENE
ISS -2.0 16:31:21 10° S 16:33:31 16° SE 16:35:14 12° ESE
Okean-O 3.8 16:30:57 10° S 16:35:13 47° W 16:39:32 10° NNW
Ariane Rocket 3.6 16:31:14 10° SE 16:35:52 37° ENE 16:40:31 10° N
Abrixas rocket 1.9 16:34:47 10° WSW 16:37:36 60° SSE 16:39:57 14° E
Lacrosse 5 rocket 2.4 16:33:43 10° W 16:37:50 47° NNW 16:42:11 10° NE
Meteor 1-21 4.2 16:32:45 10° N 16:38:25 83° ENE 16:44:00 10° SSE
Cosmos 2227 Rocket 4.5 16:35:37 10° W 16:40:16 25° NW 16:44:56 10° N
CSL-04 Debris 4.3 16:36:52 10° SSE 16:42:15 80° WSW 16:47:41 10° NNW
USA 116 3.5 16:42:14 10° NNE 16:45:36 84° W 16:49:18 10° SSW
Cosmos 1437 2.8 16:42:58 10° NNW 16:45:57 69° W 16:48:56 10° S
Cosmos 1300 Rocket 4.2 16:42:06 10° SSE 16:46:00 32° E 16:49:58 10° NNE
GP-B 4.5 16:42:31 10° N 16:46:45 44° W 16:50:58 10° SSW
Cosmos 1603 4.2 16:41:43 10° NNW 16:47:20 63° WSW 16:52:52 10° SSE
YAOGAN 1 3.9 16:47:07 10° S 16:51:15 44° W 16:55:25 10° NNW
Cosmos 1898 Rocket 3.6 16:46:31 10° SSW 16:51:41 81° WNW 16:56:55 10° NNE
CSL-04 Rocket 4.0 16:46:42 10° S 16:52:05 71° WSW 16:57:36 10° NNW
Cosmos 1867 3.6 16:47:16 10° NW 16:52:46 80° NE 16:57:55 12° SE
USA 234 4.0 16:49:12 10° ENE 16:54:46 29° SE 17:00:17 10° S
HJ-1C 4.1 16:54:07 10° S 16:57:21 55° W 17:00:37 10° NNW
Cosmos 1536 Rocket 4.1 16:56:41 10° N 17:00:52 39° ENE 17:04:05 16° SE
NOSS 3-2 (C) 4.4 16:58:21 10° NW 17:05:22 51° NE 17:11:17 19° ESE
Cosmos 1626 4.2 17:07:11 10° NE 17:08:46 13° ENE 17:08:46 13° ENE
Cosmos 372 Rocket 4.0 17:06:02 10° S 17:11:09 57° ESE 17:16:17 10° NNE
Cosmos 1072 Rocket 4.4 17:05:43 10° S 17:11:55 75° E 17:18:16 10° NNE
Cosmos 1782 Rocket 4.4 17:07:49 10° SSW 17:12:08 54° WNW 17:16:31 10° N
Cosmos 2150 Rocket 4.5 17:08:10 10° S 17:13:06 39° ESE 17:18:08 10° NE
Cosmos 2151 Rocket 3.8 17:09:16 10° SSE 17:13:30 46° E 17:17:48 10° NNE
Nadezhda 4 Rocket 4.0 17:08:08 10° N 17:14:12 59° ENE 17:20:05 11° SSE
Cosmos 1975 4.4 17:10:51 10° SW 17:14:41 38° WNW 17:18:32 10° N
CZ-4 R/B 4.1 17:11:28 10° SW 17:14:44 22° W 17:18:01 10° NW
CREW DRAGON DEMO-1 DEB 3.6 17:11:50 10° WNW 17:14:46 45° N 17:16:06 26° ENE
Cosmos 1025 Rocket 3.0 17:10:50 10° N 17:15:12 71° ENE 17:19:13 12° SSE
Cosmos 2034 Rocket 4.1 17:11:58 10° SSE 17:18:09 56° E 17:24:21 10° NNE
USA 186 1.8 17:17:17 15° S 17:19:45 77° WSW 17:23:00 10° NNW
Cosmos 2082 Rocket 4.3 17:17:23 10° N 17:20:06 14° NNE 17:22:51 10° ENE
Cosmos 1937 Rocket 4.0 17:16:19 10° SW 17:21:32 63° WNW 17:26:43 10° NNE
MOS 1 Rocket 3.6 17:19:41 10° N 17:24:10 63° WNW 17:28:27 10° SSW
Cosmos 1125 Rocket 4.1 17:19:38 10° SSE 17:24:19 33° ESE 17:29:03 10° NE
Cosmos 1805 4.5 17:25:29 24° ENE 17:25:29 24° ENE 17:27:58 10° NNE
OBJECT-B 1.0 17:28:11 46° E 17:28:33 49° ENE 17:31:43 10° N
NOSS 2-2 (E) 3.2 17:26:39 10° SW 17:30:09 80° NW 17:34:15 10° NE
Meteor 1-24 Rocket 4.5 17:25:34 10° N 17:30:28 32° ENE 17:31:59 28° E
Cosmos 1674 2.8 17:30:18 10° N 17:34:05 53° ENE 17:34:53 44° ESE
In-Cosmos 22 4.2 17:29:00 10° NNW 17:34:18 79° W 17:39:38 10° S
FREGAT/IRIS 2.5 17:34:35 54° SSW 17:34:56 63° W 17:37:32 10° NNW
ATLAS 2AS CENTAUR R/B 4.2 17:37:35 20° E 17:37:35 20° E 17:41:01 10° ENE
Cosmos 468 4.5 17:31:32 10° NNW 17:36:55 83° ENE 17:39:57 26° SSE
NOSS 2-2 (D) 3.1 17:35:05 10° SW 17:38:35 83° NW 17:42:36 10° NE
H-2A R/B 3.7 17:35:47 10° SSW 17:40:12 32° W 17:44:44 10° NNW
ARGOS 4.2 17:35:18 10° S 17:40:23 44° W 17:45:33 10° NNW
CZ-2C R/B 2.6 17:36:56 10° NNE 17:42:29 86° ESE 17:48:05 10° SSW
Resurs 01 Rocket 2.0 17:41:42 41° ESE 17:42:33 46° ENE 17:46:50 10° N
Cosmos 1707 4.3 17:42:38 10° NNW 17:46:09 35° W 17:49:39 10° SSW
CENTAUR R/B 3.2 17:38:45 10° NW 17:46:40 71° NE 17:51:22 31° ESE
SJ-6B 3.4 17:46:10 20° S 17:48:29 52° W 17:52:10 10° NNW
Lacrosse 4 Rocket 3.8 17:47:38 10° NNE 17:48:57 11° NNE 17:49:36 11° NE
Cosmos 1048 Rocket 4.0 17:45:53 10° NNW 17:51:12 81° WSW 17:53:54 30° SSE
KORONAS-FOTON 3.7 17:47:31 10° N 17:51:29 81° E 17:52:09 60° SSE
Cosmos 1634 Rocket 4.2 17:49:46 34° SE 17:51:53 46° E 17:57:45 10° NNE
ATLAS 3B R/B 3.6 17:46:13 10° NW 17:52:28 37° NNE 17:55:35 26° ENE
Cosmos 1844 3.8 17:47:29 10° S 17:52:58 51° ESE 17:58:26 10° NE
SPOT 1/Viking Rocket 4.5 17:53:08 30° ENE 17:53:28 30° ENE 17:57:56 10° N
USA 238 DEB 3.8 17:47:04 10° NW 17:54:17 84° SW 17:58:11 32° SE
USA 238 3.8 17:47:10 10° NW 17:54:24 85° SW 17:58:16 32° SE
Cosmos 2285 Rocket 4.0 17:50:10 10° S 17:56:15 54° ESE 18:02:25 10° NNE
Cosmos 1766 4.4 17:58:20 31° NE 17:58:20 31° NE 18:00:41 10° NNE
Cosmos 2263 Rocket 3.8 17:53:13 10° WSW 17:58:16 34° NW 18:03:22 10° NNE
ARIANE 5 R/B 3.2 18:00:10 40° ENE 18:00:10 40° ENE 18:03:57 10° N
IGS 5A 4.5 18:00:41 32° NE 18:00:41 32° NE 18:03:43 10° N
Cosmos 1269 Rocket 4.3 17:55:04 10° NNW 18:00:15 49° ENE 18:01:04 45° E
MetOp-B 4.3 17:59:48 45° ESE 18:00:47 51° ENE 18:05:58 10° N
SWAS 4.3 17:57:55 10° NNW 18:02:15 81° ENE 18:02:37 72° ESE
Cosmos 1844 Rocket 2.5 17:59:34 10° SSW 18:05:07 77° ESE 18:10:44 10° NNE
Cosmos 1627 Rocket 4.5 17:59:57 10° N 18:06:22 73° E 18:08:51 40° SSE
Spot 2 Rocket 3.9 18:07:55 42° ENE 18:07:58 42° ENE 18:12:43 10° N
ISS -2.1 18:06:32 10° WSW 18:08:14 27° SW 18:08:14 27° SW
Cosmos 1092 Rocket 3.9 18:06:24 10° N 18:12:34 85° W 18:15:35 33° S
Abrixas rocket 4.2 18:10:00 10° W 18:11:14 23° W 18:11:14 23° W
Okean 1 Rocket 3.0 18:14:14 70° S 18:14:44 90° ESE 18:19:16 10° N
Ariane Rocket 4.5 18:10:17 10° SSW 18:14:51 34° W 18:19:27 10° NNW
Cosmos 2195 Rocket 4.4 18:09:39 10° N 18:15:59 89° W 18:18:32 39° S
Meteor 1-15 Rocket 4.3 18:10:57 10° SSW 18:16:33 76° WNW 18:22:19 10° N
Lacrosse 5 rocket 3.2 18:14:02 10° WNW 18:17:50 28° N 18:19:36 22° NE
Cosmos 2026 Rocket 3.9 18:13:49 10° N 18:20:13 85° E 18:22:21 45° SSE
Resurs 1-3 4.3 18:20:34 38° SSW 18:21:47 50° W 18:26:05 10° NNW
NOSS 3-2 (A) 4.4 18:15:11 10° NW 18:22:34 61° WSW 18:26:32 32° S
Cosmos 494 Rocket 4.2 18:19:12 10° NNW 18:24:25 66° WSW 18:25:34 51° SSW
SPOT 3 Rocket 4.0 18:22:59 36° SSW 18:24:52 58° W 18:29:58 10° NNW
Cosmos 1833 Rocket 3.3 18:20:32 10° NNW 18:25:54 42° NE 18:26:05 41° ENE
CZ-2C R/B 3.7 18:22:31 10° NNE 18:26:59 78° WNW 18:27:16 74° WSW
Cosmos 1428 Rocket 4.4 18:26:17 10° N 18:32:37 84° W 18:34:19 51° S
Cosmos 2279 Rocket 3.9 18:36:18 62° E 18:36:18 62° E 18:42:23 10° NNE
Cosmos 2142 Rocket 4.4 18:36:37 67° SE 18:37:15 73° E 18:43:29 10° NNE
USA 234 3.1 18:31:48 10° NE 18:38:22 85° SE 18:44:56 10° SW
Terra 3.4 18:40:19 25° NNE 18:40:19 25° NNE 18:42:58 10° N
Cosmos 1892 Rocket 4.4 18:39:51 10° N 18:42:56 46° N 18:42:56 46° N
Cosmos 1626 3.8 18:41:04 10° NNW 18:43:18 32° NW 18:43:18 32° NW
Meteor 2-5 Rocket 4.3 18:41:08 10° NNW 18:46:35 53° W 18:48:05 42° SW
NOSS 3-2 (C) 4.4 18:49:17 10° NW 18:56:40 58° WSW 18:58:44 46° S
SPOT 5 3.7 19:00:55 46° NNE 19:00:55 46° NNE 19:04:51 10° N
OBJECT-B 4.0 19:01:23 11° W 19:01:23 11° W 19:02:10 10° WNW
Cosmos 2082 Rocket 2.9 19:00:13 10° NNW 19:04:43 44° NNE 19:04:43 44° NNE
COSMOS 2406 3.5 19:07:23 10° NNW 19:12:17 64° WNW 19:12:17 64° WNW
ERS-1 Rocket 3.9 19:17:23 46° NNW 19:17:23 46° NNW 19:20:53 10° NNW
Resurs 01 Rocket 3.7 19:19:16 22° W 19:19:16 22° W 19:22:44 10° NW
Cosmos 2266 Rocket 4.2 19:16:03 10° N 19:21:01 61° N 19:21:01 61° N
Cosmos 2098 Rocket 4.1 19:16:25 10° N 19:23:23 79° WNW 19:23:23 79° WNW
ATLAS 2AS CENTAUR R/B 2.9 19:24:48 82° S 19:25:10 85° SE 19:33:04 10° NE
Cosmos 1655 Rocket 4.2 19:21:53 10° NNW 19:27:33 68° NW 19:27:33 68° NW
Lacrosse 4 Rocket 3.9 19:24:35 10° NNW 19:25:54 19° NNW 19:25:54 19° NNW
Cosmos 2278 Rocket 4.0 19:40:44 22° NNE 19:40:44 22° NNE 19:42:35 10° NNE
CENTAUR R/B 3.9 19:29:48 10° NW 19:37:15 40° WSW 19:38:33 38° SW
ATLAS 3B R/B 2.9 19:36:53 10° NW 19:42:49 66° WNW 19:42:49 66° WNW
Lacrosse 5 rocket 4.1 19:53:45 10° NW 19:55:13 19° NW 19:55:13 19° NW
Cosmos 1833 Rocket 4.3 20:04:36 10° NW 20:07:47 29° WNW 20:07:47 29° WNW
Terra 4.1 20:19:13 21° NW 20:19:13 21° NW 20:20:56 10° NNW
USA 234 3.9 20:14:53 10° ENE 20:21:09 51° NNW 20:27:25 10° W
Cosmos 2082 Rocket 4.3 20:44:39 10° NW 20:46:33 19° WNW 20:46:33 19° WNW
CZ-4C R/B 4.3 21:16:50 22° NE 21:16:50 22° NE 21:19:05 10° NE
ATLAS 2AS CENTAUR R/B 4.1 21:11:59 19° W 21:17:02 39° NNW 21:24:12 10° NE
Cosmos 2278 Rocket 4.3 21:22:33 22° NNW 21:22:33 22° NNW 21:26:09 10° N
USA 234 4.2 21:57:24 10° ENE 22:06:55 25° NW 22:09:37 10° WNW
SL-16 R/B 3.7 22:27:14 37° NE 22:27:14 37° NE 22:31:40 10° N
Cosmos 1943 Rocket 4.1 22:35:46 25° N 22:35:46 25° N 22:38:34 10° NNE
CZ-2D R/B 4.1 22:37:02 10° NNE 22:39:26 22° NE 22:39:26 22° NE
Cosmos 2297 Rocket 3.8 22:43:16 10° NNW 22:47:05 31° NNE 22:47:05 31° NNE
Resurs 1-4 Rocket 3.9 22:51:09 10° NNE 22:53:50 27° NE 22:53:50 27° NE
Cosmos 2369 Rocket 3.9 22:59:18 26° NNW 22:59:18 26° NNW 23:02:30 10° NNE
CZ-4C R/B 4.0 23:02:00 25° NNW 23:02:43 26° NNW 23:08:10 10° NE
Cosmos 2218 Rocket 4.3 23:33:51 10° N 23:39:21 66° NNE 23:39:21 66° NNE
Cosmos 2366 rocket 4.3 23:36:33 10° N 23:41:56 65° NNE 23:41:56 65° NNE
Cosmos 2227 Rocket 3.3 23:40:06 10° NNW 23:43:30 37° NNW 23:43:30 37° NNW
USA 234 3.5 23:39:32 10° ESE 23:45:59 66° NNE 23:50:27 22° NW
Lacrosse 5 3.7 23:53:35 22° ESE 23:53:35 22° ESE 23:56:23 10° ENE
